Weather History for Hawthorne, CA

Change the Weather History Date:

Monday, June 16, 2014

  Actual Average Record
Temperature  
Mean Temperature 68 °F -  
Max Temperature 72 °F 72 °F 104 °F (1981)
Min Temperature 63 °F 60 °F 55 °F (1950)
Cooling Degree Days 2    
Growing Degree Days 18 (Base 50)    
Moisture  
Dew Point 52 °F    
Average Humidity 60    
Maximum Humidity 70    
Minimum Humidity 49    
Precipitation  
Precipitation 0.00 in - - ()
Sea Level Pressure  
Sea Level Pressure 29.90 in    
Wind  
Wind Speed 5 mph (WSW)    
Max Wind Speed 13 mph    
Max Gust Speed 21 mph    
Visibility 10 miles    
Events      
Averages and records for this station are not official NWS values.
T = Trace of Precipitation, MM = Missing Value Source: NWS Daily Summary

Daily Weather History Graph

Daily Weather History Graph

Search for Another Location

Airport:

Trip Planner

Search our weather history database for the weather conditions in past years. The results will help you decide how hot, cold, wet, or windy it might be!

Date:

Astronomy

Jun. 16, 2014 Rise Set
Actual Time 5:41 AM PDT 8:06 PM PDT
Civil Twilight 5:12 AM PDT 8:35 PM PDT
Nautical Twilight 4:36 AM PDT 9:11 PM PDT
Astronomical Twilight 3:57 AM PDT 9:50 PM PDT
Moon 11:12 PM PDT (6/16) 9:42 AM PDT (6/16)
Length of Visible Light 15h 22m
Length of Day
14h 24m
Waning Gibbous, 82% of the Moon is Illuminated
Jun 16
Waning Gibbous
Jun 19
Last Quarter
Jun 27
New
Jul 5
First Quarter
Jul 12
Full

Hourly Weather History & Observations

Time (PDT) Temp. Dew Point Humidity Pressure Visibility Wind Dir Wind Speed Gust Speed Precip Events Conditions
12:53 AM 64.0 °F 53.1 °F 67% 29.88 in 10.0 mi Calm Calm - N/A   Overcast
1:53 AM 64.0 °F 52.0 °F 65% 29.88 in 10.0 mi South 3.5 mph - N/A   Overcast
2:53 AM 63.0 °F 52.0 °F 67% 29.87 in 10.0 mi South 4.6 mph - N/A   Overcast
3:53 AM 64.0 °F 52.0 °F 65% 29.87 in 10.0 mi Calm Calm - N/A   Overcast
4:53 AM 63.0 °F 51.1 °F 65% 29.88 in 10.0 mi SSW 3.5 mph - N/A   Overcast
5:53 AM 63.0 °F 52.0 °F 67% 29.88 in 10.0 mi SW 3.5 mph - N/A   Overcast
6:53 AM 64.0 °F 51.1 °F 63% 29.90 in 10.0 mi South 3.5 mph - N/A   Overcast
7:53 AM 66.0 °F 51.1 °F 59% 29.92 in 10.0 mi South 4.6 mph - N/A   Overcast
8:00 AM 64.4 °F 51.8 °F 64% 29.92 in 10.0 mi SW 3.5 mph - N/A   Overcast
8:53 AM 66.9 °F 50.0 °F 54% 29.93 in 10.0 mi Calm Calm - N/A   Mostly Cloudy
9:53 AM 68.0 °F 52.0 °F 56% 29.93 in 10.0 mi West 6.9 mph - N/A   Partly Cloudy
10:53 AM 69.1 °F 52.0 °F 54% 29.92 in 10.0 mi WSW 6.9 mph - N/A   Clear
11:53 AM 71.1 °F 52.0 °F 51% 29.93 in 10.0 mi WSW 11.5 mph - N/A   Clear
12:53 PM 70.0 °F 52.0 °F 53% 29.92 in 10.0 mi West 9.2 mph 18.4 mph N/A   Clear
1:53 PM 72.0 °F 52.0 °F 49% 29.92 in 10.0 mi West 8.1 mph 17.3 mph N/A   Clear
2:53 PM 71.1 °F 53.1 °F 53% 29.91 in 10.0 mi WSW 11.5 mph 16.1 mph N/A   Clear
3:53 PM 70.0 °F 54.0 °F 57% 29.89 in 10.0 mi West 10.4 mph 19.6 mph N/A   Clear
4:53 PM 69.1 °F 53.1 °F 57% 29.88 in 10.0 mi WSW 12.7 mph 20.7 mph N/A   Clear
5:53 PM 68.0 °F 52.0 °F 56% 29.87 in 10.0 mi West 11.5 mph - N/A   Clear
6:53 PM 66.9 °F 53.1 °F 61% 29.88 in 10.0 mi WSW 12.7 mph - N/A   Clear
7:53 PM 64.9 °F 52.0 °F 63% 29.88 in 10.0 mi WSW 8.1 mph - N/A   Clear
8:53 PM 64.9 °F 51.1 °F 61% 29.89 in 10.0 mi WSW 8.1 mph - N/A   Clear
9:53 PM 64.0 °F 48.0 °F 56% 29.90 in 10.0 mi WNW 3.5 mph - N/A   Clear
10:53 PM 64.0 °F 54.0 °F 70% 29.91 in 10.0 mi SW 3.5 mph - N/A   Clear
11:53 PM 64.0 °F 54.0 °F 70% 29.91 in 10.0 mi West 4.6 mph - N/A   Partly Cloudy